FW7746 Weather Reports


Display with metric or nautical units.
time (UTC)temp
F
wind
direction
speed
MPH
gust
MPH
rain 1hr
in
rain 24hr
in
rain mn
in
humidity
%
barometer
mb
20260904225103 56 200 0.0 0.0 0.04 0.05 0.05 72 1013.1
20260904224603 55 200 0.0 2.0 0.05 0.05 0.05 72 1013.1
20260904223603 54 204 0.0 3.0 0.05 0.05 0.05 70 1013.1
20260904223103 54 237 0.0 0.0 0.05 0.05 0.05 79 1013.2
20260904222603 54 238 0.0 2.0 0.05 0.05 0.05 79 1013.1
20260904222103 52 236 0.0 3.0 0.05 0.05 0.05 79 1013.2
20260904221603 51 237 0.0 0.0 0.05 0.05 0.05 87 1013.3
20260904221103 49 237 0.0 0.0 0.05 0.05 0.05 82 1013.3
20260904220603 49 234 0.0 0.0 0.04 0.04 0.04 82 1013.7
20260904220104 50 194 0.0 3.0 0.03 0.03 0.03 82 1014.2
20260904215603 51 139 1.0 3.0 0.01 0.01 0.01 76 1014.4
20260904215103 53 225 3.0 12.0 0.01 0.01 0.01 71 1014.0
20260904214604 55 242 1.0 10.0 0.00 0.00 0.00 62 1013.7
20260904214103 57 188 0.0 3.0 0.00 0.00 0.00 59 1013.3
20260904213603 57 150 0.0 1.0 0.00 0.00 0.00 58 1013.2
20260904212603 58 178 0.0 3.0 0.00 0.00 0.00 51 1012.8
20260904211603 60 206 0.0 1.0 0.00 0.00 0.00 50 1012.8
20260904210603 60 241 0.0 3.0 0.00 0.00 0.00 51 1012.7
20260904210103 60 137 0.0 2.0 0.00 0.00 0.00 50 1012.8
20260904205603 60 139 0.0 3.0 0.00 0.00 0.00 49 1012.7
20260904204603 61 127 0.0 3.0 0.00 0.00 0.00 51 1012.8
20260904203605 60 138 0.0 3.0 0.00 0.00 0.00 54 1012.7
20260904203103 59 151 0.0 3.0 0.00 0.00 0.00 54 1012.8
20260904202603 59 91 0.0 3.0 0.00 0.00 0.00 55 1012.9
20260904202104 58 202 0.0 1.0 0.00 0.00 0.00 55 1013.0
20260904201603 57 251 1.0 6.0 0.00 0.00 0.00 55 1013.0
20260904201103 56 176 0.0 1.0 0.00 0.00 0.00 58 1013.1
20260904200603 56 175 1.0 5.0 0.00 0.00 0.00 58 1013.0
20260904200104 55 87 0.0 3.0 0.00 0.00 0.00 57 1013.1
20260904195603 57 133 0.0 6.0 0.00 0.00 0.00 56 1013.2
20260904194604 55 130 0.0 0.0 0.00 0.00 0.00 62 1013.4
20260904194103 54 123 0.0 0.0 0.00 0.00 0.00 62 1013.5
20260904193603 54 170 0.0 1.0 0.00 0.00 0.00 61 1013.7
20260904192603 54 89 0.0 1.0 0.00 0.00 0.00 61 1013.7
20260904192104 53 209 0.0 3.0 0.00 0.00 0.00 62 1013.8
20260904191603 52 233 0.0 3.0 0.00 0.00 0.00 63 1013.9
20260904191103 53 163 1.0 5.0 0.00 0.00 0.00 63 1014.0
20260904190603 52 138 0.0 3.0 0.00 0.00 0.00 63 1014.0
20260904190104 52 199 0.0 3.0 0.00 0.00 0.00 65 1014.0
20260904185103 51 204 0.0 3.0 0.00 0.00 0.00 65 1014.2
20260904184603 50 118 1.0 3.0 0.00 0.00 0.00 66 1014.1
20260904184104 50 183 0.0 2.0 0.00 0.00 0.00 66 1014.1
20260904183603 50 138 0.0 0.0 0.00 0.00 0.00 68 1014.1
20260904183103 49 181 0.0 3.0 0.00 0.00 0.00 68 1014.0
20260904182104 49 211 1.0 9.0 0.00 0.00 0.00 68 1014.0
20260904181603 50 243 1.0 7.0 0.00 0.00 0.00 68 1013.9
20260904181103 50 187 1.0 5.0 0.00 0.00 0.00 69 1013.8
20260904180104 50 141 0.0 3.0 0.00 0.00 0.00 68 1013.7
20260904175603 50 184 0.0 1.0 0.00 0.00 0.00 69 1013.6
20260904175103 50 255 1.0 6.0 0.00 0.00 0.00 68 1013.5
20260904174603 50 153 0.0 5.0 0.00 0.00 0.00 68 1013.5
20260904174103 50 214 0.0 3.0 0.00 0.00 0.00 68 1013.4
20260904173103 50 217 0.0 3.0 0.00 0.00 0.00 67 1013.3
20260904172603 50 191 0.0 3.0 0.00 0.00 0.00 67 1013.3
20260904172103 50 258 0.0 3.0 0.00 0.00 0.00 68 1013.2
20260904171603 50 135 0.0 0.0 0.00 0.00 0.00 69 1013.1
20260904171103 50 134 0.0 3.0 0.00 0.00 0.00 69 1013.1
20260904170603 50 135 0.0 1.0 0.00 0.00 0.00 69 1013.1
20260904165603 49 161 0.0 3.0 0.00 0.00 0.00 69 1013.1
20260904165104 49 183 0.0 2.0 0.00 0.00 0.00 69 1013.1
20260904164604 49 190 0.0 2.0 0.00 0.00 0.00 69 1013.0
20260904164103 49 180 0.0 2.0 0.00 0.00 0.00 68 1013.0
20260904163603 49 236 0.0 8.0 0.00 0.00 0.00 68 1013.0
20260904163103 49 204 0.0 2.0 0.00 0.00 0.00 68 1012.9
20260904162103 49 244 0.0 3.0 0.00 0.00 0.00 69 1012.8
20260904161103 49 209 0.0 1.0 0.00 0.00 0.00 71 1012.8
20260904160603 48 249 0.0 3.0 0.00 0.00 0.00 72 1012.9
20260904160103 48 239 0.0 6.0 0.00 0.00 0.00 71 1012.8
20260904155603 48 144 1.0 5.0 0.00 0.00 0.00 72 1012.8
20260904154603 48 218 0.0 1.0 0.00 0.00 0.00 73 1012.7
20260904154103 47 227 0.0 3.0 0.00 0.00 0.00 73 1012.7
20260904153603 47 155 0.0 2.0 0.00 0.00 0.00 73 1012.7
20260904153103 47 211 0.0 1.0 0.00 0.00 0.00 73 1012.7
20260904152603 47 232 0.0 0.0 0.00 0.00 0.00 73 1012.7
20260904152103 47 232 0.0 1.0 0.00 0.00 0.00 73 1012.7
20260904151604 47 234 0.0 1.0 0.00 0.00 0.00 73 1012.8
20260904151104 47 245 1.0 3.0 0.00 0.00 0.00 72 1012.7
20260904150104 48 156 0.0 2.0 0.00 0.00 0.00 72 1012.6
20260904145603 47 212 0.0 5.0 0.00 0.00 0.00 72 1012.6
20260904145104 47 154 0.0 3.0 0.00 0.00 0.00 73 1012.5
20260904144604 47 170 1.0 5.0 0.00 0.00 0.00 73 1012.5
20260904144103 47 188 1.0 5.0 0.00 0.00 0.00 74 1012.4
20260904143603 46 170 1.0 3.0 0.00 0.00 0.00 75 1012.3
20260904143104 46 160 1.0 5.0 0.00 0.00 0.00 75 1012.2
20260904142103 45 218 1.0 3.0 0.00 0.00 0.00 77 1011.9
20260904141603 45 227 0.0 2.0 0.00 0.00 0.00 78 1011.7
20260904141103 44 199 0.0 3.0 0.00 0.00 0.00 79 1011.6
20260904140604 44 198 0.0 1.0 0.00 0.00 0.00 79 1011.8
20260904140104 44 200 0.0 1.0 0.00 0.00 0.00 79 1011.9
20260904135604 44 181 0.0 3.0 0.00 0.00 0.00 80 1011.8
20260904134603 43 151 0.0 2.0 0.00 0.00 0.00 81 1011.7
20260904134103 43 196 0.0 1.0 0.00 0.00 0.00 81 1011.7
20260904133603 43 167 0.0 0.0 0.00 0.00 0.00 81 1011.7
20260904133104 43 167 0.0 0.0 0.00 0.00 0.00 81 1011.7
20260904132603 43 167 0.0 0.0 0.00 0.00 0.00 81 1011.7
20260904132104 43 167 0.0 0.0 0.00 0.00 0.00 81 1011.7
20260904131603 43 167 0.0 0.0 0.00 0.00 0.00 81 1011.6
20260904131103 43 167 0.0 0.0 0.00 0.00 0.00 80 1011.7
20260904130603 43 167 0.0 0.0 0.00 0.00 0.00 80 1011.7
20260904130103 44 167 0.0 0.0 0.00 0.00 0.00 80 1011.6
20260904125604 44 167 0.0 0.0 0.00 0.00 0.00 80 1011.4
20260904125103 44 167 0.0 0.0 0.00 0.00 0.00 80 1011.4
20260904124103 44 167 0.0 0.0 0.00 0.00 0.00 80 1011.4
20260904123603 44 167 0.0 0.0 0.00 0.00 0.00 80 1011.4
20260904123103 44 167 0.0 0.0 0.00 0.00 0.00 79 1011.4
20260904122604 44 167 0.0 0.0 0.00 0.00 0.00 79 1011.4
20260904122103 44 167 0.0 0.0 0.00 0.00 0.00 79 1011.4
20260904121603 44 167 0.0 0.0 0.00 0.00 0.00 80 1011.4
20260904121103 44 167 0.0 0.0 0.00 0.00 0.00 80 1011.4
20260904120604 44 167 0.0 0.0 0.00 0.00 0.00 79 1011.4
20260904120104 44 167 0.0 0.0 0.00 0.00 0.00 79 1011.1
20260904115603 45 167 0.0 0.0 0.00 0.00 0.00 79 1011.1
20260904115103 45 167 0.0 0.0 0.00 0.00 0.00 79 1011.2
20260904114603 45 167 0.0 0.0 0.00 0.00 0.00 79 1011.3
20260904114104 45 167 0.0 0.0 0.00 0.00 0.00 79 1011.2
20260904113604 45 167 0.0 0.0 0.00 0.00 0.00 79 1011.1
20260904113104 45 167 0.0 0.0 0.00 0.00 0.00 79 1011.0
20260904112103 45 167 0.0 0.0 0.00 0.00 0.00 78 1010.9
20260904111603 45 167 0.0 0.0 0.00 0.00 0.00 79 1010.9
20260904111104 45 167 0.0 0.0 0.00 0.00 0.00 78 1011.0
20260904105103 45 166 0.0 0.0 0.00 0.00 0.00 78 1010.7
20260904104603 45 166 0.0 0.0 0.00 0.00 0.00 78 1010.7
20260904104103 46 166 0.0 0.0 0.00 0.00 0.00 77 1010.7
20260904103604 46 166 0.0 0.0 0.00 0.00 0.00 77 1010.6
20260904103103 46 166 0.0 3.0 0.00 0.00 0.00 77 1010.7
20260904102603 46 188 0.0 1.0 0.00 0.00 0.00 77 1010.8
20260904102104 46 212 0.0 0.0 0.00 0.00 0.00 77 1010.8
20260904101603 46 212 0.0 1.0 0.00 0.00 0.00 77 1010.8
20260904101103 46 213 0.0 3.0 0.00 0.00 0.00 77 1010.8
20260904100603 46 225 0.0 0.0 0.00 0.00 0.00 77 1010.8
20260904095603 46 234 0.0 0.0 0.00 0.00 0.00 77 1010.5
20260904095103 46 234 1.0 5.0 0.00 0.00 0.00 77 1010.4
20260904094603 46 207 0.0 1.0 0.00 0.00 0.00 77 1010.5
20260904094104 46 189 0.0 2.0 0.00 0.00 0.00 77 1010.5
20260904093603 46 194 0.0 3.0 0.00 0.00 0.00 78 1010.5
20260904093103 46 191 0.0 0.0 0.00 0.00 0.00 78 1010.5
20260904092603 46 190 0.0 0.0 0.00 0.00 0.00 78 1010.6
20260904092104 46 192 0.0 2.0 0.00 0.00 0.00 77 1010.5
20260904091603 46 186 0.0 2.0 0.00 0.00 0.00 76 1010.5
20260904090103 46 223 0.0 1.0 0.00 0.00 0.00 76 1010.5
20260904085604 46 216 1.0 3.0 0.00 0.00 0.00 76 1010.5
20260904085103 46 158 0.0 3.0 0.00 0.00 0.00 76 1010.5
20260904084603 47 202 0.0 3.0 0.00 0.00 0.00 76 1010.6
20260904084104 47 196 0.0 0.0 0.00 0.00 0.00 76 1010.5
20260904083603 47 196 0.0 3.0 0.00 0.00 0.00 75 1010.5
20260904083103 47 200 0.0 0.0 0.00 0.00 0.00 76 1010.4
20260904082103 47 199 0.0 1.0 0.00 0.00 0.00 76 1010.4
20260904081604 47 196 0.0 2.0 0.00 0.00 0.00 76 1010.3
20260904081103 47 162 0.0 0.0 0.00 0.00 0.00 76 1010.3
20260904080604 47 161 0.0 0.0 0.00 0.00 0.00 76 1010.3
20260904080103 47 161 0.0 0.0 0.00 0.00 0.00 76 1010.3
20260904075604 47 161 0.0 0.0 0.00 0.00 0.00 76 1010.3
20260904074604 47 161 0.0 0.0 0.00 0.00 0.00 76 1010.2
20260904074103 47 162 0.0 0.0 0.00 0.00 0.00 76 1010.3
20260904073604 47 162 0.0 0.0 0.00 0.00 0.00 76 1010.2
20260904072605 47 161 0.0 0.0 0.00 0.00 0.00 76 1010.2
20260904072103 47 161 0.0 0.0 0.00 0.00 0.00 75 1010.1
20260904071604 47 161 0.0 0.0 0.00 0.00 0.00 75 1010.1
20260904071103 48 161 0.0 0.0 0.00 0.00 0.00 74 1010.2
20260904065604 48 161 0.0 0.0 0.00 0.00 0.00 73 1010.3
20260904065103 48 161 0.0 0.0 0.00 0.00 0.00 73 1010.2
20260904064604 49 161 0.0 0.0 0.00 0.00 0.00 72 1010.2
20260904064103 49 161 0.0 0.0 0.00 0.00 0.00 72 1010.1
20260904063603 49 161 0.0 2.0 0.00 0.00 0.00 72 1010.1
20260904063104 49 167 0.0 0.0 0.00 0.00 0.00 72 1010.1
20260904062603 49 167 0.0 0.0 0.00 0.00 0.00 72 1010.2
20260904062104 49 167 0.0 0.0 0.00 0.00 0.00 72 1010.2
20260904061103 49 167 0.0 0.0 0.00 0.00 0.00 71 1010.2
20260904060603 49 167 0.0 1.0 0.00 0.00 0.00 71 1010.3
20260904060104 49 174 0.0 0.0 0.00 0.00 0.00 71 1010.2
20260904055104 49 174 0.0 0.0 0.00 0.00 0.00 70 1010.1
20260904054603 49 174 0.0 1.0 0.00 0.00 0.00 70 1010.1
20260904054103 50 174 0.0 0.0 0.00 0.00 0.00 69 1010.2
20260904053604 50 174 0.0 0.0 0.00 0.00 0.00 69 1010.2
20260904053104 50 174 0.0 0.0 0.00 0.00 0.00 68 1010.2
20260904052603 50 174 0.0 0.0 0.00 0.00 0.00 68 1010.2
20260904052104 50 175 0.0 0.0 0.00 0.00 0.00 67 1010.2
20260904051604 50 175 0.0 0.0 0.00 0.00 0.00 67 1010.2
20260904051103 50 175 0.0 0.0 0.00 0.00 0.00 67 1010.4
20260904050103 50 173 0.0 0.0 0.00 0.00 0.00 66 1010.4
20260904045604 50 173 0.0 0.0 0.00 0.00 0.00 66 1010.3
20260904045103 50 173 0.0 0.0 0.00 0.00 0.00 65 1010.2
20260904044603 50 173 0.0 0.0 0.00 0.00 0.00 65 1010.3
20260904044104 51 173 0.0 0.0 0.00 0.00 0.00 64 1010.2
20260904043604 51 173 0.0 0.0 0.00 0.00 0.00 64 1010.2
20260904043103 51 173 0.0 0.0 0.00 0.00 0.00 64 1010.1
20260904042604 51 173 0.0 0.0 0.00 0.00 0.00 64 1010.0
20260904042103 50 173 0.0 0.0 0.00 0.00 0.00 65 1009.9
20260904041103 51 173 0.0 0.0 0.00 0.00 0.00 67 1009.9
20260904040603 51 173 0.0 0.0 0.00 0.00 0.00 66 1009.9
20260904035604 51 173 0.0 0.0 0.00 0.00 0.00 63 1009.9
20260904035103 52 173 0.0 0.0 0.00 0.00 0.00 63 1009.8
20260904034603 52 173 0.0 0.0 0.00 0.00 0.00 62 1009.7
20260904034104 52 173 0.0 0.0 0.00 0.00 0.00 61 1009.6
20260904033103 53 173 0.0 0.0 0.00 0.00 0.00 59 1009.6
20260904032103 53 173 0.0 0.0 0.00 0.00 0.00 59 1009.6
20260904031603 53 173 0.0 0.0 0.00 0.00 0.00 58 1009.6
20260904031104 53 173 0.0 0.0 0.00 0.01 0.00 57 1009.6
20260904030604 53 173 0.0 0.0 0.00 0.01 0.00 56 1009.4
20260904030104 54 173 0.0 0.0 0.00 0.01 0.00 55 1009.4
20260904025603 54 173 0.0 0.0 0.00 0.01 0.00 55 1009.3
20260904025103 54 173 0.0 0.0 0.00 0.01 0.00 55 1009.3
20260904024604 54 173 0.0 0.0 0.00 0.01 0.00 54 1009.1
20260904024103 54 173 0.0 0.0 0.00 0.01 0.00 54 1009.0
20260904023103 55 173 0.0 0.0 0.00 0.01 0.00 53 1009.0
20260904022604 55 173 0.0 0.0 0.00 0.01 0.00 53 1009.0
20260904022103 55 172 0.0 0.0 0.00 0.01 0.00 52 1009.0
20260904021603 55 173 0.0 0.0 0.00 0.01 0.00 52 1009.0
20260904021104 55 172 0.0 0.0 0.00 0.01 0.00 51 1009.0
20260904020603 55 172 0.0 0.0 0.00 0.01 0.00 51 1009.0
20260904015603 56 172 0.0 0.0 0.00 0.01 0.00 51 1009.1
20260904015103 56 172 0.0 0.0 0.00 0.01 0.00 50 1009.1
20260904014104 56 171 0.0 2.0 0.00 0.01 0.00 49 1009.1
20260904013604 56 180 0.0 0.0 0.00 0.01 0.00 50 1009.0
20260904013103 57 181 0.0 0.0 0.00 0.02 0.00 50 1009.0
20260904012603 57 181 0.0 0.0 0.00 0.02 0.00 49 1009.0
20260904012103 57 180 0.0 2.0 0.00 0.03 0.00 48 1009.0
20260904011603 57 207 0.0 0.0 0.00 0.04 0.00 49 1008.9
20260904011104 57 207 0.0 0.0 0.00 0.06 0.00 49 1008.8
20260904010604 57 207 0.0 1.0 0.00 0.07 0.00 48 1008.7
20260904010104 57 209 0.0 3.0 0.00 0.09 0.00 48 1008.8
20260904005603 57 195 0.0 1.0 0.00 0.09 0.00 47 1008.6
20260904005104 57 190 0.0 0.0 0.00 0.10 0.00 47 1008.8
20260904004603 57 182 0.0 1.0 0.00 0.11 0.00 47 1008.8
20260904003604 57 189 0.0 0.0 0.00 0.11 0.00 46 1008.9
20260904003103 57 215 0.0 3.0 0.00 0.11 0.00 47 1008.9
20260904002604 58 188 0.0 1.0 0.00 0.11 0.00 46 1008.9
20260904001603 57 212 0.0 0.0 0.00 0.11 0.00 46 1008.8
20260904001104 58 211 1.0 5.0 0.00 0.11 0.00 43 1008.9
20260904000603 59 218 1.0 7.0 0.00 0.11 0.00 43 1008.8
20260904000104 59 155 0.0 1.0 0.00 0.11 0.00 44 1008.8
20260903235604 59 163 0.0 2.0 0.00 0.11 0.00 44 1008.8
20260903235104 59 113 0.0 0.0 0.00 0.11 0.00 45 1008.8
20260903234103 59 151 0.0 2.0 0.00 0.11 0.00 45 1008.8
20260903233603 59 52 1.0 6.0 0.00 0.11 0.00 47 1008.9
20260903233103 58 222 1.0 5.0 0.00 0.11 0.00 48 1008.9
20260903232603 58 121 0.0 2.0 0.00 0.11 0.00 47 1009.0
20260903231103 58 147 0.0 2.0 0.00 0.11 0.00 47 1009.1
20260903230604 59 144 0.0 1.0 0.00 0.11 0.00 46 1009.1
20260903230103 60 134 0.0 2.0 0.00 0.11 0.00 45 1009.2
20260903225603 60 91 1.0 6.0 0.00 0.11 0.00 47 1009.1